| time (UTC) | temp F | wind direction | speed knots | gust knots | rain 1hr in | rain 24hr in | rain mn in | humidity % | barometer mb |
| 20260505071554 | 64 | 0 | 0.0 | 7.0 | 0.00 | 0.00 | 0.00 | 63 | 1006.9 |
| 20260505070047 | 65 | 0 | 0.0 | 4.3 | 0.00 | 0.00 | 0.00 | 63 | 1007.0 |
| 20260505064542 | 65 | 0 | 0.9 | 6.1 | 0.00 | 0.00 | 0.00 | 63 | 1006.8 |
| 20260505063058 | 65 | 317 | 0.9 | 6.1 | 0.00 | 0.00 | 0.00 | 62 | 1007.0 |
| 20260505061610 | 65 | 0 | 0.9 | 8.7 | 0.00 | 0.00 | 0.00 | 62 | 1007.0 |
| 20260505060055 | 66 | 5 | 1.7 | 7.0 | 0.00 | 0.00 | 0.00 | 61 | 1006.6 |
| 20260505054548 | 66 | 5 | 1.7 | 7.0 | 0.00 | 0.00 | 0.00 | 61 | 1006.5 |
| 20260505053045 | 67 | 0 | 0.9 | 8.7 | 0.00 | 0.00 | 0.00 | 60 | 1006.3 |
| 20260505051606 | 67 | 5 | 1.7 | 4.3 | 0.00 | 0.00 | 0.00 | 60 | 1006.2 |
| 20260505041537 | 68 | 0 | 0.9 | 5.2 | 0.00 | 0.00 | 0.00 | 61 | 1007.0 |
| 20260505040035 | 68 | 0 | 1.7 | 5.2 | 0.00 | 0.00 | 0.00 | 61 | 1007.1 |
| 20260505034539 | 68 | 22 | 0.9 | 7.8 | 0.00 | 0.00 | 0.00 | 60 | 1007.1 |
| 20260505033037 | 68 | 351 | 1.7 | 10.4 | 0.00 | 0.00 | 0.00 | 60 | 1007.1 |
| 20260505031534 | 68 | 0 | 0.9 | 7.0 | 0.00 | 0.00 | 0.00 | 60 | 1006.9 |
| 20260505030034 | 68 | 346 | 0.9 | 7.0 | 0.00 | 0.00 | 0.00 | 60 | 1006.8 |
| 20260505024548 | 69 | 34 | 0.9 | 7.0 | 0.00 | 0.00 | 0.00 | 60 | 1006.5 |
| 20260505023041 | 69 | 306 | 1.7 | 7.0 | 0.00 | 0.00 | 0.00 | 60 | 1006.3 |
| 20260505021537 | 69 | 360 | 0.0 | 4.3 | 0.00 | 0.00 | 0.00 | 60 | 1006.2 |
| 20260505020035 | 69 | 350 | 0.0 | 1.7 | 0.00 | 0.00 | 0.00 | 59 | 1005.9 |
| 20260505014533 | 70 | 0 | 0.9 | 4.3 | 0.00 | 0.00 | 0.00 | 59 | 1005.8 |
| 20260505013042 | 70 | 5 | 0.0 | 7.0 | 0.00 | 0.00 | 0.00 | 59 | 1005.7 |
| 20260505011541 | 70 | 333 | 0.9 | 4.3 | 0.00 | 0.00 | 0.00 | 57 | 1005.6 |
| 20260505010038 | 71 | 0 | 0.9 | 4.3 | 0.00 | 0.00 | 0.00 | 56 | 1005.6 |
| 20260505004544 | 71 | 355 | 0.9 | 7.8 | 0.00 | 0.00 | 0.00 | 55 | 1005.6 |
| 20260505003043 | 72 | 22 | 0.9 | 8.7 | 0.00 | 0.00 | 0.00 | 54 | 1005.5 |
| 20260505001544 | 72 | 0 | 0.0 | 11.3 | 0.00 | 0.00 | 0.00 | 53 | 1005.8 |
| 20260505000046 | 73 | 340 | 0.9 | 7.8 | 0.00 | 0.00 | 0.00 | 51 | 1005.9 |
| 20260504234539 | 73 | 0 | 0.0 | 8.7 | 0.00 | 0.00 | 0.00 | 50 | 1006.0 |
| 20260504233100 | 74 | 0 | 0.9 | 7.8 | 0.00 | 0.00 | 0.00 | 48 | 1006.4 |
| 20260504231546 | 75 | 67 | 2.6 | 8.7 | 0.00 | 0.00 | 0.00 | 47 | 1006.2 |
| 20260504230053 | 75 | 76 | 1.7 | 10.4 | 0.00 | 0.00 | 0.00 | 47 | 1006.2 |
| 20260504224542 | 74 | 101 | 0.9 | 11.3 | 0.00 | 0.00 | 0.00 | 49 | 1006.5 |
| 20260504223047 | 74 | 41 | 0.9 | 6.1 | 0.00 | 0.00 | 0.00 | 56 | 1006.4 |
| 20260504221544 | 74 | 14 | 0.9 | 5.2 | 0.00 | 0.00 | 0.00 | 56 | 1006.4 |
| 20260504220045 | 73 | 0 | 0.9 | 3.5 | 0.00 | 0.00 | 0.00 | 56 | 1006.4 |
| 20260504214548 | 74 | 78 | 0.9 | 3.5 | 0.00 | 0.00 | 0.00 | 51 | 1006.9 |
| 20260504213041 | 74 | 87 | 0.0 | 3.5 | 0.00 | 0.00 | 0.00 | 51 | 1007.0 |
| 20260504211540 | 74 | 87 | 0.9 | 3.5 | 0.00 | 0.00 | 0.00 | 51 | 1007.2 |
| 20260504210043 | 74 | 92 | 0.9 | 7.0 | 0.00 | 0.00 | 0.00 | 52 | 1007.4 |
| 20260504204548 | 74 | 26 | 1.7 | 6.1 | 0.00 | 0.00 | 0.00 | 53 | 1007.5 |
| 20260504203058 | 73 | 89 | 0.0 | 6.1 | 0.00 | 0.00 | 0.00 | 55 | 1007.7 |
| 20260504201541 | 73 | 106 | 2.6 | 8.7 | 0.00 | 0.00 | 0.00 | 54 | 1007.9 |
| 20260504200041 | 73 | 109 | 1.7 | 5.2 | 0.00 | 0.00 | 0.00 | 53 | 1008.0 |
| 20260504194537 | 72 | 100 | 1.7 | 6.1 | 0.00 | 0.00 | 0.00 | 59 | 1008.2 |
| 20260504193041 | 71 | 52 | 2.6 | 7.8 | 0.00 | 0.00 | 0.00 | 59 | 1008.7 |
| 20260504191543 | 70 | 0 | 1.7 | 5.2 | 0.00 | 0.00 | 0.00 | 61 | 1008.7 |
| 20260504190105 | 69 | 90 | 0.0 | 5.2 | 0.00 | 0.00 | 0.00 | 64 | 1009.0 |
| 20260504184548 | 68 | 0 | 0.9 | 5.2 | 0.00 | 0.00 | 0.00 | 63 | 1009.2 |
| 20260504183037 | 68 | 84 | 1.7 | 7.0 | 0.00 | 0.00 | 0.00 | 61 | 1009.1 |
| 20260504181544 | 69 | 89 | 1.7 | 7.8 | 0.00 | 0.00 | 0.00 | 61 | 1008.8 |
| 20260504180044 | 69 | 88 | 0.9 | 7.8 | 0.00 | 0.00 | 0.00 | 59 | 1008.6 |
| 20260504174540 | 70 | 64 | 2.6 | 8.7 | 0.00 | 0.00 | 0.00 | 60 | 1008.4 |
| 20260504173044 | 69 | 0 | 1.7 | 7.8 | 0.00 | 0.00 | 0.00 | 61 | 1008.4 |
| 20260504171543 | 67 | 0 | 0.9 | 7.0 | 0.00 | 0.00 | 0.00 | 65 | 1008.5 |
| 20260504081540 | 52 | 352 | 0.9 | 4.3 | 0.00 | 0.00 | 0.00 | 64 | 1010.7 |